Location: Newark
(6.9000°N, 10.0000°E)
Time: 01:11:11
(UTC+00:00)

Envisat - Pass Details

Date: 23 October 2019
Orbit: 764 x 766 km, 98.1° (Epoch: 19 November)

Event Time Altitude Azimuth Distance (km) Brightness Sun altitude
Rises 18:47:14 0° 201° (SSW) 3,223 6.6 -26.5°
Reaches altitude 10° 18:50:23 10° 222° (SW) 2,296 6.1 -27.3°
Maximum altitude 18:53:27 16° 259° (W) 1,898 5.9 -28.0°
Drops below altitude 10° 18:56:32 10° 297° (WNW) 2,294 6.1 -28.8°
Sets 18:59:41 0° 318° (NW) 3,218 6.6 -29.5°
